[[{"header":{"parameterUnit":"m.s-1","parameterCategory":2,"la1":30.2991,"la2":30.254,"lo1":-89.0895,"lo2":-89.0444,"dy":0.0017,"dx":0.0017,"nx":28,"ny":28,"refTime":"2025-05-18T09:00:00:Z","depth":"0","parameterNumber":2,"parameterNumberName":"U-component_of_CURRENTS"},"data":[0,0,0,0,0,0,0,0,0,0,0,0,0,0,0,0,0,0,0,0,0,0,0,0,0,0,0,0,0,0,0,0,0,0,0,0,0,0,0,0,0,0,0,0,0,0,0,0,0,0,0,0,0,0,0,0,0,0,-0.2904,-0.2905,0,-0.2896,-0.2895,-0.2894,-0.2805,-0.2804,-0.2803,-0.2802,-0.2644,-0.2641,-0.2638,0,0,0,0,0,0,0,0,0,0,0,0,0,-0.2751,-0.2753,-0.2904,-0.2905,-0.2906,-0.2896,-0.2895,-0.2894,-0.2805,-0.2804,-0.2803,-0.2801,-0.2645,-0.2642,-0.2638,0,0,0,0,0,0,0,0,0,0,0,0,0,-0.2776,-0.2754,-0.2904,-0.287,-0.2868,-0.2897,-0.2895,-0.2893,-0.2805,-0.2804,-0.2802,-0.2801,-0.2647,-0.2642,-0.2637,-0.2639,0,0,-0.2623,-0.262,0,0,0,0,0,0,0,0,-0.2774,-0.278,-0.2874,-0.2873,-0.287,-0.2861,-0.2784,-0.2805,-0.2806,-0.2815,-0.2802,-0.28,-0.2713,-0.2702,-0.2688,-0.2632,-0.2625,-0.2622,-0.2619,-0.2617,-0.2616,0,0,0,0,0,0,0,-0.2773,-0.2779,-0.2887,-0.2876,-0.2874,-0.2826,-0.2827,-0.2787,-0.276,-0.2814,-0.2811,-0.2832,-0.2708,-0.2693,-0.2684,-0.2623,-0.2622,-0.2618,-0.2615,-0.2613,-0.2542,-0.2543,0,0,0,0,0,0,-0.2807,-0.2779,-0.2888,-0.2889,-0.2832,-0.2831,-0.2831,-0.2855,-0.2764,-0.2753,-0.2833,-0.2828,-0.2702,-0.2689,-0.2678,-0.265,-0.2617,-0.2613,-0.261,-0.2541,-0.2543,-0.2544,0,0,0,0,0,0,-0.2804,-0.2817,-0.2889,-0.2843,-0.285,-0.2837,-0.2863,-0.2856,-0.2833,-0.2782,-0.2765,-0.2818,-0.27,-0.2684,-0.2648,-0.2644,-0.261,-0.2606,-0.254,-0.2542,-0.2543,-0.2611,0,0,0,0,0,0,-0.2799,-0.2816,-0.282,-0.2846,-0.2855,-0.2897,-0.2866,-0.2858,-0.2855,-0.2847,-0.2764,-0.2749,-0.2698,-0.2656,-0.2643,-0.2637,-0.2602,-0.2539,-0.2541,-0.2543,-0.2607,-0.2615,-0.2621,0,0,0,0,0,-0.2794,-0.2781,-0.282,-0.2833,-0.2869,-0.2898,-0.2896,-0.2872,-0.2857,-0.2843,-0.2803,-0.2751,-0.2659,-0.2653,-0.2638,-0.263,-0.2538,-0.254,-0.2543,-0.2604,-0.2613,-0.2621,0,0,0,0,0,0,-0.2694,-0.2775,-0.2816,-0.2826,-0.2873,-0.2888,-0.2857,-0.2878,-0.2837,-0.2814,-0.2764,-0.2746,-0.2716,-0.2672,-0.2668,-0.2619,-0.2589,-0.2589,-0.2642,-0.2649,-0.2656,-0.2649,-0.2598,0,0,0,0,0,-0.2695,-0.2704,-0.2797,-0.2797,-0.2822,-0.2853,-0.2855,-0.2864,-0.2852,-0.2831,-0.2798,-0.2751,-0.2718,-0.2683,-0.2648,-0.2617,-0.2555,-0.2604,-0.261,-0.2616,-0.2603,-0.2535,-0.2533,-0.2551,-0.2551,-0.2551,0,0,-0.2652,-0.2699,-0.2702,-0.2778,-0.2794,-0.2822,-0.2842,-0.2848,-0.2865,-0.2821,-0.2794,-0.2776,-0.272,-0.2691,-0.2671,-0.2647,-0.2579,-0.2619,-0.2624,-0.2607,-0.2537,-0.2534,-0.2532,-0.2553,-0.2552,-0.2552,0,0,-0.2553,-0.2624,-0.2598,-0.2654,-0.2718,-0.2768,-0.2784,-0.2833,-0.2838,-0.2845,-0.2823,-0.2809,-0.2749,-0.2722,-0.2695,-0.2718,-0.2628,-0.2707,-0.2715,-0.265,-0.2647,-0.2644,-0.2559,-0.2547,-0.2696,-0.2696,-0.2697,0,-0.2479,-0.2515,-0.259,-0.2598,-0.2647,-0.2752,-0.2764,-0.2796,-0.2829,-0.2829,-0.2832,-0.2772,-0.2759,-0.2708,-0.2743,-0.2729,-0.2669,-0.2688,-0.2656,-0.2652,-0.2647,-0.2561,-0.2547,-0.27,-0.27,-0.2699,-0.2699,0,-0.2394,-0.2432,-0.2419,-0.2492,-0.2547,-0.2578,-0.2689,-0.2727,-0.2773,-0.2797,-0.2781,-0.2775,-0.2733,-0.2746,-0.2758,-0.2727,-0.2688,-0.2683,-0.2633,-0.2649,-0.2557,-0.2542,-0.2705,-0.2704,-0.2703,-0.2702,0,0,-0.2212,-0.2332,-0.2333,-0.2395,-0.2516,-0.2568,-0.2609,-0.2687,-0.27,-0.2729,-0.2715,-0.2722,-0.2732,-0.2708,-0.2721,-0.2693,-0.2656,-0.2692,-0.2687,-0.26,-0.2486,-0.238,-0.2352,-0.2642,-0.264,-0.2638,-0.2433,0,-0.2127,-0.2155,-0.2236,-0.2298,-0.2358,-0.2487,-0.2527,-0.2604,-0.2657,-0.2674,-0.2679,-0.2671,-0.2711,-0.2713,-0.2692,-0.2688,-0.2619,-0.271,-0.2489,-0.2481,-0.2378,-0.2332,-0.2231,-0.2032,-0.2417,-0.2414,-0.2412,0,-0.2044,-0.2098,-0.2134,-0.2287,-0.2315,-0.2359,-0.2485,-0.2531,-0.2578,-0.2603,-0.2586,-0.2602,-0.2605,-0.2635,-0.255,-0.2605,-0.2547,-0.2517,-0.2507,-0.2368,-0.2345,-0.2079,-0.1989,-0.1993,-0.2388,-0.239,-0.2392,0,-0.1962,-0.205,-0.2098,-0.2148,-0.2298,-0.233,-0.2413,-0.2487,-0.2536,-0.256,-0.2575,-0.2538,-0.2532,-0.2474,-0.2441,-0.25,-0.2303,-0.2363,-0.2172,-0.2162,-0.201,-0.199,-0.1886,-0.2233,-0.2234,-0.2235,-0.2235,0,-0.1898,-0.1939,-0.207,-0.2104,-0.2179,-0.229,-0.2341,-0.241,-0.247,-0.2436,-0.2537,-0.2468,-0.2497,-0.2404,-0.2377,-0.2203,-0.2225,-0.214,-0.2093,-0.2031,-0.2016,-0.196,-0.2013,-0.2227,-0.2229,-0.223,-0.2231,0,-0.1809,-0.1883,-0.1966,-0.2102,-0.2146,-0.2208,-0.2345,-0.2353,-0.244,-0.2398,-0.2409,-0.2422,-0.2287,-0.2262,-0.2127,-0.2089,-0.1912,-0.1866,-0.1784,-0.1731,-0.1621,-0.1681,-0.1506,-0.1468,-0.166,-0.1656,-0.1653,0,-0.1767,-0.1789,-0.1949,-0.1987,-0.2046,-0.2147,-0.2179,-0.2318,-0.2316,-0.2291,-0.2236,-0.2154,-0.1974,-0.1799,-0.1732,-0.1599,-0.1667,-0.1442,-0.1551,-0.1561,-0.1595,-0.1669,-0.1658,-0.1372,-0.1367,-0.1362,-0.1359,0,-0.1678,-0.1729,-0.1796,-0.1878,-0.1936,-0.1992,-0.2047,-0.2042,-0.2081,-0.2027,-0.1807,-0.1664,-0.1543,-0.1362,-0.1297,-0.1231,-0.1438,-0.1346,-0.1372,-0.1357,-0.1412,-0.1369,-0.1565,-0.1319,-0.1323,-0.1326,-0.1328,-0.133,-0.1597,-0.1626,-0.1687,-0.1756,-0.1797,-0.1733,-0.1683,-0.1668,-0.1565,-0.135,-0.1311,-0.1014,-0.1045,-0.0952,-0.0919,-0.0955,-0.1081,-0.0983,-0.1049,-0.1119,-0.1102,-0.12,-0.0904,-0.0905,-0.0907,-0.0908,-0.0909,0,-0.1484,-0.15,-0.1545,-0.1579,-0.1504,-0.1583,-0.1504,-0.1376,-0.1101,-0.0896,-0.0644,-0.0408,-0.0403,-0.0541,-0.0692,-0.0688,-0.0738,-0.0718,-0.0828,-0.0828,-0.0893,-0.0903,-0.0574,-0.0574,-0.0574,-0.0574,-0.0574,-0.0574,-0.1421,-0.1401,-0.1424,-0.1265,-0.1237,-0.1056,-0.0937,-0.075,-0.059,-0.0167,0.0066,0.0184,-0.0088,-0.0449,-0.0619,-0.0611,-0.0677,-0.0632,-0.0711,-0.0807,-0.084,-0.0871,-0.0892,-0.0567,-0.0567,-0.0603,-0.0603,-0.0604]},{"header":{"parameterUnit":"m.s-1","parameterCategory":2,"la1":30.2991,"la2":30.254,"lo1":-89.0895,"lo2":-89.0444,"dy":0.0017,"dx":0.0017,"nx":28,"ny":28,"refTime":"2025-05-18T09:00:00:Z","depth":"0","parameterNumber":3,"parameterNumberName":"V-component_of_CURRENTS"},"data":[0,0,0,0,0,0,0,0,0,0,0,0,0,0,0,0,0,0,0,0,0,0,0,0,0,0,0,0,0,0,0,0,0,0,0,0,0,0,0,0,0,0,0,0,0,0,0,0,0,0,0,0,0,0,0,0,0,0,0.0375,0.0377,0,0.0499,0.05,0.05,0.0549,0.055,0.055,0.0551,0.0562,0.0562,0.0561,0,0,0,0,0,0,0,0,0,0,0,0,0,0.0168,0.0171,0.0374,0.0377,0.0379,0.0499,0.05,0.0501,0.0549,0.055,0.0551,0.0551,0.0562,0.0562,0.0561,0,0,0,0,0,0,0,0,0,0,0,0,0,0.0262,0.0171,0.0374,0.0425,0.0431,0.0499,0.05,0.0501,0.0549,0.055,0.0551,0.0552,0.0562,0.0562,0.0561,0.0544,0,0,0.056,0.056,0,0,0,0,0,0,0,0,0.0257,0.0269,0.0415,0.0422,0.0429,0.0518,0.0432,0.0513,0.0549,0.0494,0.0551,0.0552,0.0542,0.0543,0.0553,0.0544,0.0544,0.056,0.056,0.056,0.056,0,0,0,0,0,0,0,0.025,0.0264,0.0414,0.0418,0.0426,0.0439,0.0452,0.0447,0.0503,0.0499,0.0506,0.0534,0.0544,0.0554,0.0554,0.0545,0.056,0.056,0.056,0.056,0.0494,0.0493,0,0,0,0,0,0,0.0254,0.0258,0.041,0.0419,0.0354,0.0442,0.0457,0.0481,0.0506,0.0514,0.0533,0.0536,0.0554,0.0554,0.0554,0.0505,0.056,0.056,0.056,0.0496,0.0494,0.0492,0,0,0,0,0,0,0.0249,0.0266,0.0406,0.0349,0.0369,0.0446,0.0472,0.0483,0.0496,0.0535,0.0539,0.0537,0.0554,0.0555,0.0534,0.0507,0.056,0.0559,0.0498,0.0495,0.0493,0.0425,0,0,0,0,0,0,0.0242,0.0263,0.0254,0.0349,0.0372,0.0429,0.0473,0.0485,0.0517,0.0521,0.0538,0.0541,0.0555,0.0534,0.0534,0.0507,0.0559,0.05,0.0497,0.0494,0.0429,0.042,0.0413,0,0,0,0,0,0.0234,0.0216,0.0253,0.0271,0.0367,0.0429,0.044,0.0492,0.0516,0.0507,0.0518,0.054,0.0516,0.0532,0.0532,0.0505,0.0501,0.0498,0.0494,0.0432,0.0422,0.0413,0,0,0,0,0,0,0.0107,0.0224,0.0265,0.028,0.0348,0.0441,0.0432,0.0486,0.049,0.0483,0.0519,0.052,0.0498,0.0504,0.0523,0.0477,0.0512,0.0508,0.0465,0.0456,0.0448,0.0399,0.0559,0,0,0,0,0,0.0083,0.0104,0.022,0.0226,0.0256,0.0345,0.037,0.0418,0.0455,0.046,0.0486,0.0491,0.0483,0.0472,0.0474,0.044,0.0477,0.0422,0.0414,0.0407,0.0366,0.038,0.037,0.0481,0.0481,0.0481,0,0,0.0038,0.0102,0.0113,0.0201,0.025,0.0261,0.0357,0.0392,0.0385,0.0455,0.0429,0.0469,0.047,0.0441,0.043,0.044,0.0412,0.0403,0.0397,0.0359,0.0376,0.0365,0.0355,0.0478,0.0479,0.0479,0,0,-0.0051,0.0012,-0.0002,0.0045,0.0128,0.0188,0.0199,0.0297,0.0316,0.0325,0.0363,0.0376,0.0383,0.0372,0.0366,0.0308,0.0378,0.0323,0.0229,0.0245,0.0236,0.0228,0.0338,0.0341,0.0307,0.0307,0.0307,0,-0.0119,-0.0103,-0.0002,-0.001,0.001,0.0147,0.0125,0.016,0.0237,0.0233,0.0299,0.0309,0.0338,0.0268,0.0263,0.0287,0.0342,0.027,0.0234,0.0227,0.022,0.0335,0.0338,0.0303,0.0304,0.0304,0.0305,0,-0.0202,-0.0202,-0.0212,-0.0172,-0.0149,-0.0136,-0.0054,-0.0036,0.0034,0.0084,0.0079,0.0141,0.0139,0.0169,0.0202,0.0153,0.0231,0.0237,0.026,0.0205,0.033,0.0335,0.0298,0.0299,0.03,0.0301,0,0,-0.0298,-0.0276,-0.0276,-0.0297,-0.0226,-0.0213,-0.0238,-0.0211,-0.0223,-0.0141,-0.0156,-0.0134,-0.006,-0.0065,-0.0004,0.0019,0.0077,0.0104,0.0107,0.0217,0.0186,0.0232,0.0244,0.0081,0.0079,0.0078,0.0323,0,-0.0387,-0.0448,-0.0407,-0.0475,-0.0494,-0.0414,-0.0446,-0.0417,-0.0347,-0.0321,-0.0258,-0.0239,-0.0166,-0.0134,-0.0112,0.0042,0.0072,0.0014,0.0218,0.0225,0.0273,0.0242,0.0286,0.0503,0.0328,0.0329,0.033,0,-0.0458,-0.0492,-0.0574,-0.0616,-0.0618,-0.0644,-0.0649,-0.0655,-0.0605,-0.0555,-0.0527,-0.043,-0.0381,-0.0295,-0.0128,-0.016,-0.0022,0.0102,0.0114,0.0163,0.0274,0.0514,0.052,0.0627,0.0338,0.0337,0.0337,0,-0.0538,-0.0602,-0.0675,-0.0684,-0.0709,-0.0751,-0.0759,-0.0731,-0.0718,-0.069,-0.0617,-0.0587,-0.0457,-0.037,-0.0093,-0.0111,0.0143,0.015,0.0311,0.0323,0.0396,0.0413,0.0516,0.0212,0.0211,0.021,0.021,0,-0.0614,-0.0673,-0.0723,-0.0757,-0.086,-0.0846,-0.091,-0.0909,-0.0856,-0.0779,-0.0734,-0.0601,-0.0463,-0.0269,-0.0121,0.0144,0.0117,0.0283,0.0355,0.0383,0.0395,0.0519,0.0547,0.022,0.0218,0.0216,0.0214,0,-0.067,-0.0694,-0.0792,-0.0865,-0.0892,-0.0965,-0.0986,-0.0985,-0.0936,-0.0812,-0.0786,-0.0571,-0.0317,-0.0164,0.0088,0.0188,0.0454,0.0457,0.0529,0.0598,0.0778,0.0801,0.0938,0.1031,0.0645,0.0647,0.0649,0,-0.0699,-0.0749,-0.0868,-0.0919,-0.0953,-0.1037,-0.105,-0.1043,-0.0973,-0.0726,-0.0614,-0.0367,-0.0093,0.0252,0.0372,0.0567,0.0625,0.073,0.0638,0.0775,0.0855,0.0851,0.0918,0.0778,0.078,0.0782,0.0784,0,-0.0757,-0.0793,-0.0868,-0.0967,-0.1018,-0.1059,-0.1043,-0.099,-0.0851,-0.0673,-0.0293,-0.006,0.0254,0.0509,0.0665,0.0771,0.0791,0.0779,0.0882,0.0907,0.0946,0.1077,0.0704,0.0803,0.0801,0.08,0.0799,0.0798,-0.0784,-0.0851,-0.092,-0.1007,-0.1042,-0.0981,-0.094,-0.0809,-0.0617,-0.0229,-0.0031,0.0385,0.0661,0.0885,0.0951,0.1047,0.0992,0.1104,0.1122,0.1108,0.1149,0.0839,0.1015,0.1014,0.1013,0.1013,0.1012,0,-0.0798,-0.0851,-0.0935,-0.0983,-0.0946,-0.0971,-0.0839,-0.0699,-0.0365,-0.0025,0.0349,0.087,0.1084,0.1207,0.1299,0.1386,0.1393,0.144,0.1444,0.1498,0.1214,0.1167,0.1427,0.1427,0.1427,0.1426,0.1426,0.1426,-0.0805,-0.0866,-0.09,-0.0848,-0.0833,-0.0685,-0.0564,-0.0337,-0.0091,0.0466,0.0846,0.1138,0.1404,0.1549,0.1653,0.1677,0.1796,0.1759,0.1832,0.1626,0.1596,0.1567,0.1528,0.186,0.186,0.2124,0.2126,0.2128]}],[{"header":{"parameterUnit":"m.s-1","parameterCategory":2,"la1":30.2991,"la2":30.254,"lo1":-89.0895,"lo2":-89.0444,"dy":0.0017,"dx":0.0017,"nx":28,"ny":28,"refTime":"2025-05-18T09:00:00:Z","depth":"2","parameterNumber":2,"parameterNumberName":"U-component_of_CURRENTS"},"data":[0,0,0,0,0,0,0,0,0,0,0,0,0,0,0,0,0,0,0,0,0,0,0,0,0,0,0,0,0,0,0,0,0,0,0,0,0,0,0,0,0,0,0,0,0,0,0,0,0,0,0,0,0,0,0,0,0,0,-0.2058,-0.2058,0,-0.2043,-0.2043,-0.2043,-0.2033,-0.2033,-0.2033,-0.2033,-0.2228,-0.2233,-0.2239,0,0,0,0,0,0,0,0,0,0,0,0,0,-0.2014,-0.2016,-0.2058,-0.2058,-0.2057,-0.2043,-0.2043,-0.2043,-0.2033,-0.2033,-0.2033,-0.2032,-0.2226,-0.2233,-0.2239,0,0,0,0,0,0,0,0,0,0,0,0,0,-0.2022,-0.2016,-0.2058,-0.2049,-0.2048,-0.2043,-0.2043,-0.2043,-0.2034,-0.2033,-0.2033,-0.2032,-0.2224,-0.2232,-0.224,-0.2299,0,0,-0.2265,-0.2269,0,0,0,0,0,0,0,0,-0.2022,-0.2024,-0.2051,-0.205,-0.2048,-0.2037,-0.2099,-0.2138,-0.2034,-0.2042,-0.2033,-0.2032,-0.2183,-0.2194,-0.2193,-0.2308,-0.2316,-0.2266,-0.2271,-0.2274,-0.2277,0,0,0,0,0,0,0,-0.2021,-0.2024,-0.2055,-0.205,-0.2049,-0.2023,-0.2025,-0.2105,-0.2121,-0.2041,-0.204,-0.2034,-0.2184,-0.2184,-0.2198,-0.2319,-0.2266,-0.2273,-0.2278,-0.2281,-0.2405,-0.2403,0,0,0,0,0,0,-0.2023,-0.2024,-0.2055,-0.2054,-0.2031,-0.2024,-0.2026,-0.2043,-0.2115,-0.2123,-0.2034,-0.2034,-0.2171,-0.2188,-0.2205,-0.2203,-0.2274,-0.2282,-0.2287,-0.2407,-0.2405,-0.2403,0,0,0,0,0,0,-0.2022,-0.2026,-0.2056,-0.2035,-0.2037,-0.2026,-0.2045,-0.2043,-0.2067,-0.2107,-0.212,-0.2061,-0.2171,-0.2193,-0.2255,-0.2214,-0.2286,-0.2293,-0.2408,-0.2406,-0.2404,-0.2249,0,0,0,0,0,0,-0.2021,-0.2027,-0.2045,-0.2036,-0.2038,-0.2048,-0.2045,-0.2043,-0.2061,-0.2061,-0.2135,-0.215,-0.2172,-0.2242,-0.2263,-0.2226,-0.2299,-0.2411,-0.2407,-0.2404,-0.2256,-0.2241,-0.2229,0,0,0,0,0,-0.202,-0.2017,-0.2046,-0.205,-0.2062,-0.2047,-0.2046,-0.2037,-0.2063,-0.2062,-0.21,-0.2149,-0.2237,-0.2249,-0.2274,-0.2237,-0.2412,-0.2408,-0.2405,-0.2262,-0.2244,-0.2229,0,0,0,0,0,0,-0.1994,-0.2016,-0.2047,-0.2052,-0.2058,-0.2045,-0.2036,-0.2059,-0.2089,-0.2099,-0.2155,-0.2172,-0.2188,-0.2256,-0.2267,-0.2261,-0.2324,-0.2325,-0.2207,-0.2191,-0.2178,-0.2217,-0.2306,0,0,0,0,0,-0.2006,-0.2017,-0.2036,-0.2041,-0.2047,-0.2063,-0.2063,-0.2066,-0.2084,-0.2096,-0.2133,-0.2174,-0.219,-0.2228,-0.2249,-0.2294,-0.2339,-0.2279,-0.2265,-0.2253,-0.23,-0.2314,-0.2306,-0.2391,-0.2391,-0.2391,0,0,-0.1992,-0.2009,-0.2014,-0.2037,-0.2044,-0.2045,-0.2062,-0.2059,-0.2056,-0.2121,-0.2126,-0.2134,-0.2187,-0.2176,-0.2194,-0.2238,-0.2236,-0.2248,-0.2238,-0.2293,-0.2309,-0.2301,-0.2294,-0.2388,-0.2389,-0.2389,0,0,-0.1965,-0.1997,-0.2005,-0.2018,-0.2035,-0.2032,-0.2045,-0.2047,-0.2044,-0.2059,-0.2068,-0.2065,-0.2123,-0.2115,-0.2132,-0.2085,-0.2148,-0.2083,-0.2072,-0.2081,-0.2075,-0.207,-0.2044,-0.2038,-0.2094,-0.2093,-0.2093,0,-0.1957,-0.1979,-0.1998,-0.2014,-0.2019,-0.2036,-0.2044,-0.2036,-0.2049,-0.206,-0.2044,-0.2067,-0.2086,-0.2093,-0.2036,-0.2053,-0.2071,-0.212,-0.2063,-0.206,-0.2058,-0.2034,-0.2029,-0.2086,-0.2086,-0.2087,-0.2088,0,-0.194,-0.1968,-0.1964,-0.1999,-0.2003,-0.2,-0.2005,-0.2004,-0.2003,-0.2002,-0.1995,-0.1983,-0.2015,-0.1974,-0.1992,-0.1977,-0.1991,-0.2022,-0.2102,-0.204,-0.2017,-0.2015,-0.2074,-0.2077,-0.2079,-0.2081,0,0,-0.1888,-0.1948,-0.1947,-0.198,-0.2,-0.1998,-0.1993,-0.1999,-0.2023,-0.1982,-0.2001,-0.1944,-0.1952,-0.1974,-0.1968,-0.1964,-0.1895,-0.199,-0.1994,-0.196,-0.1897,-0.1785,-0.1773,-0.192,-0.192,-0.1921,-0.186,0,-0.1875,-0.1905,-0.1933,-0.1949,-0.1966,-0.1992,-0.1994,-0.2004,-0.2001,-0.2011,-0.1987,-0.1994,-0.195,-0.1957,-0.1933,-0.1929,-0.1899,-0.1909,-0.1971,-0.1973,-0.1878,-0.1771,-0.1639,-0.1566,-0.186,-0.1859,-0.1859,0,-0.1847,-0.1875,-0.1897,-0.1961,-0.1972,-0.1975,-0.2006,-0.2017,-0.2041,-0.2049,-0.205,-0.2054,-0.2028,-0.2001,-0.1956,-0.1969,-0.1929,-0.1906,-0.1904,-0.1877,-0.1861,-0.1692,-0.1554,-0.1858,-0.1858,-0.1858,-0.1859,0,-0.1789,-0.1846,-0.1865,-0.1882,-0.1945,-0.1959,-0.1984,-0.202,-0.2041,-0.2086,-0.21,-0.2098,-0.2074,-0.2054,-0.1963,-0.1984,-0.1904,-0.1934,-0.1786,-0.1777,-0.1723,-0.1707,-0.1904,-0.1904,-0.1905,-0.1905,-0.1905,0,-0.1756,-0.177,-0.1842,-0.1851,-0.1875,-0.1938,-0.1966,-0.2005,-0.206,-0.2079,-0.2116,-0.2105,-0.2089,-0.2032,-0.1983,-0.1847,-0.1912,-0.1774,-0.1756,-0.1653,-0.1633,-0.1966,-0.1974,-0.1902,-0.1903,-0.1903,-0.1904,0,-0.1687,-0.1737,-0.1761,-0.1829,-0.1848,-0.1861,-0.1936,-0.1959,-0.2034,-0.2059,-0.2078,-0.2095,-0.2017,-0.1959,-0.1899,-0.1835,-0.176,-0.1695,-0.1546,-0.151,-0.1628,-0.1629,-0.1563,-0.1558,-0.1554,-0.1551,-0.1549,0,-0.1655,-0.1662,-0.1722,-0.1722,-0.1746,-0.1785,-0.1808,-0.1912,-0.194,-0.2026,-0.2019,-0.1984,-0.1915,-0.1764,-0.1636,-0.1513,-0.1603,-0.1357,-0.1374,-0.1605,-0.1594,-0.1601,-0.1607,-0.1214,-0.1209,-0.1205,-0.1201,0,-0.1583,-0.1603,-0.1619,-0.1621,-0.1634,-0.1665,-0.1711,-0.1731,-0.1848,-0.1889,-0.1905,-0.188,-0.1716,-0.1511,-0.1337,-0.1264,-0.1377,-0.1266,-0.1551,-0.1317,-0.127,-0.1262,-0.128,-0.1164,-0.1168,-0.117,-0.1172,-0.1174,-0.1511,-0.1497,-0.1506,-0.1495,-0.1514,-0.1509,-0.1487,-0.1554,-0.1588,-0.1612,-0.1721,-0.1633,-0.1564,-0.1205,-0.1082,-0.0953,-0.1061,-0.105,-0.1066,-0.1086,-0.1052,-0.1001,-0.0836,-0.0837,-0.0839,-0.084,-0.0842,0,-0.1404,-0.1392,-0.1377,-0.1347,-0.1306,-0.1371,-0.1391,-0.1345,-0.1329,-0.1393,-0.142,-0.1256,-0.1091,-0.0984,-0.071,-0.0659,-0.0687,-0.065,-0.0705,-0.074,-0.0772,-0.0727,-0.0422,-0.0421,-0.0421,-0.042,0,0,-0.1343,-0.1282,-0.1267,-0.1139,-0.1123,-0.1035,-0.102,-0.0992,-0.1004,-0.0963,-0.0945,-0.1078,-0.1011,-0.0768,-0.0669,-0.0499,-0.0634,-0.0467,-0.08,-0.0904,-0.0936,-0.0987,-0.0953,0,0,0,0,0]},{"header":{"parameterUnit":"m.s-1","parameterCategory":2,"la1":30.2991,"la2":30.254,"lo1":-89.0895,"lo2":-89.0444,"dy":0.0017,"dx":0.0017,"nx":28,"ny":28,"refTime":"2025-05-18T09:00:00:Z","depth":"2","parameterNumber":3,"parameterNumberName":"V-component_of_CURRENTS"},"data":[0,0,0,0,0,0,0,0,0,0,0,0,0,0,0,0,0,0,0,0,0,0,0,0,0,0,0,0,0,0,0,0,0,0,0,0,0,0,0,0,0,0,0,0,0,0,0,0,0,0,0,0,0,0,0,0,0,0,-0.0513,-0.0513,0,-0.0481,-0.0479,-0.0478,-0.0414,-0.0414,-0.0414,-0.0414,-0.0111,-0.0104,-0.0096,0,0,0,0,0,0,0,0,0,0,0,0,0,-0.0474,-0.0474,-0.0513,-0.0513,-0.0514,-0.0481,-0.0479,-0.0478,-0.0414,-0.0414,-0.0414,-0.0414,-0.0114,-0.0105,-0.0095,0,0,0,0,0,0,0,0,0,0,0,0,0,-0.0459,-0.0474,-0.0513,-0.0488,-0.0486,-0.0481,-0.0479,-0.0477,-0.0415,-0.0414,-0.0414,-0.0414,-0.0117,-0.0106,-0.0094,-0.0024,0,0,-0.0057,-0.0052,0,0,0,0,0,0,0,0,-0.046,-0.0459,-0.0491,-0.049,-0.0488,-0.0462,-0.0355,-0.0316,-0.0415,-0.0429,-0.0414,-0.0414,-0.0212,-0.0192,-0.0173,-0.001,0.0003,-0.0056,-0.0049,-0.0044,-0.0041,0,0,0,0,0,0,0,-0.0461,-0.046,-0.0487,-0.0492,-0.049,-0.0464,-0.046,-0.0348,-0.0307,-0.0427,-0.0426,-0.0442,-0.0207,-0.0185,-0.0165,0.0008,-0.0057,-0.0046,-0.0039,-0.0034,0.0319,0.0321,0,0,0,0,0,0,-0.0493,-0.0462,-0.0489,-0.0488,-0.0487,-0.0466,-0.0461,-0.046,-0.0314,-0.0297,-0.0442,-0.0439,-0.0205,-0.0179,-0.0153,-0.0072,-0.0044,-0.0033,-0.0026,0.0317,0.0319,0.0322,0,0,0,0,0,0,-0.0492,-0.0495,-0.049,-0.0485,-0.0484,-0.0468,-0.0467,-0.046,-0.0434,-0.0331,-0.0306,-0.0424,-0.0204,-0.017,-0.0064,-0.0059,-0.0027,-0.0017,0.0314,0.0317,0.0321,0.0099,0,0,0,0,0,0,-0.049,-0.0494,-0.0491,-0.0486,-0.0486,-0.0477,-0.0468,-0.046,-0.0451,-0.0446,-0.0306,-0.0279,-0.0201,-0.0083,-0.0053,-0.0042,-0.0007,0.0311,0.0316,0.032,0.0103,0.0094,0.0086,0,0,0,0,0,-0.0489,-0.049,-0.0491,-0.0494,-0.0486,-0.0478,-0.0472,-0.0453,-0.045,-0.0428,-0.0355,-0.0283,-0.0033,-0.0073,-0.0037,-0.0023,0.0309,0.0314,0.0319,0.0107,0.0096,0.0086,0,0,0,0,0,0,-0.0473,-0.0485,-0.0485,-0.049,-0.0483,-0.0472,-0.0461,-0.0454,-0.0383,-0.037,-0.0272,-0.0238,-0.0155,-0.0033,-0.008,0.0102,0.0159,0.0171,-0.0014,-0.0023,-0.0031,-0.0022,0.0003,0,0,0,0,0,-0.0474,-0.0475,-0.048,-0.0485,-0.0481,-0.047,-0.0464,-0.0452,-0.0407,-0.0377,-0.0298,-0.0186,-0.0104,-0.0024,0.0069,0.018,0.0249,0.0227,0.0218,0.021,0.0249,0.0293,0.0288,0.0338,0.0338,0.0338,0,0,-0.0477,-0.0482,-0.0486,-0.0482,-0.0473,-0.0467,-0.0461,-0.0452,-0.0438,-0.0348,-0.0288,-0.023,-0.0088,-0.0003,0.0055,0.0103,0.0231,0.0216,0.0206,0.0252,0.0297,0.0291,0.0286,0.0342,0.0341,0.034,0,0,-0.0485,-0.048,-0.0481,-0.0472,-0.0471,-0.0462,-0.0463,-0.0447,-0.0421,-0.0368,-0.0321,-0.0262,-0.0099,-0.0028,0.0037,0.0064,0.0153,0.0114,0.0108,0.0145,0.014,0.0136,0.0179,0.0181,0.0143,0.0142,0.0142,0,-0.0485,-0.0494,-0.0479,-0.0475,-0.0479,-0.0463,-0.0465,-0.0434,-0.0388,-0.0361,-0.0355,-0.0196,-0.0111,-0.0013,-0.0018,0.0038,0.0081,0.0105,0.0123,0.0122,0.0121,0.0168,0.0172,0.0132,0.0133,0.0135,0.0135,0,-0.0495,-0.0498,-0.0498,-0.0489,-0.0478,-0.0479,-0.0454,-0.0427,-0.0412,-0.0385,-0.0314,-0.0234,-0.0127,-0.0106,-0.0054,0.0003,0.0036,0.0058,0.0117,0.01,0.0153,0.0161,0.0118,0.0122,0.0125,0.0127,0,0,-0.0513,-0.0507,-0.0508,-0.0514,-0.049,-0.0489,-0.0453,-0.0422,-0.0402,-0.0351,-0.0322,-0.0223,-0.0196,-0.0115,-0.0062,-0.0016,-0.003,0.0024,0.0031,0.0013,0.0055,0.0083,0.0096,-0.0031,-0.0029,-0.0028,0.0075,0,-0.053,-0.0544,-0.0525,-0.0535,-0.0545,-0.0507,-0.0481,-0.0439,-0.04,-0.0361,-0.0283,-0.0239,-0.0191,-0.0175,-0.0122,-0.0055,-0.0008,-0.0058,0.0129,0.0136,0.0115,0.0107,0.0101,0.0194,0.0085,0.0086,0.0087,0,-0.0551,-0.0563,-0.0582,-0.0576,-0.0572,-0.0566,-0.0528,-0.05,-0.0421,-0.0389,-0.0319,-0.027,-0.0187,-0.0175,-0.0032,-0.0072,-0.0006,0.0044,0.0049,0.0175,0.0182,0.0212,0.0216,0.0103,0.0102,0.01,0.0099,0,-0.0601,-0.0602,-0.0628,-0.0627,-0.0608,-0.0599,-0.0581,-0.0512,-0.0484,-0.0417,-0.0394,-0.0287,-0.0237,-0.0146,-0.0024,-0.0039,0.0118,0.0109,0.0208,0.0211,0.0305,0.0314,0.0209,0.0209,0.0208,0.0208,0.0208,0,-0.0642,-0.0658,-0.0658,-0.0675,-0.0692,-0.0653,-0.0644,-0.0602,-0.0542,-0.0512,-0.0419,-0.0358,-0.0231,-0.0123,-0.0029,0.0132,0.0124,0.0226,0.0246,0.0228,0.0229,0.0248,0.0251,0.0212,0.0211,0.021,0.021,0,-0.0694,-0.0693,-0.0726,-0.0724,-0.0722,-0.0737,-0.0703,-0.0691,-0.0621,-0.0583,-0.0572,-0.0407,-0.0253,-0.0115,0.0049,0.0138,0.0263,0.0321,0.0296,0.0311,0.033,0.0321,0.0437,0.0439,0.0441,0.0442,0.0444,0,-0.0721,-0.0748,-0.0777,-0.0802,-0.0806,-0.0813,-0.0814,-0.075,-0.0735,-0.0599,-0.0588,-0.0415,-0.0262,0.0015,0.0177,0.0357,0.0341,0.044,0.0419,0.0349,0.0357,0.0345,0.0335,0.0446,0.0447,0.0448,0.0449,0,-0.0776,-0.0791,-0.0823,-0.088,-0.0902,-0.0916,-0.0912,-0.0908,-0.0828,-0.0758,-0.0602,-0.0458,-0.015,0.009,0.0317,0.0413,0.0404,0.0465,0.0414,0.0382,0.0364,0.0368,0.0357,0.0457,0.0456,0.0455,0.0455,0.0455,-0.0813,-0.0857,-0.0905,-0.0955,-0.0986,-0.1012,-0.1015,-0.0986,-0.0937,-0.0799,-0.0644,-0.0377,-0.0156,0.0219,0.0374,0.0523,0.0518,0.0538,0.0532,0.0526,0.0502,0.0487,0.0599,0.0599,0.0599,0.0599,0.0599,0,-0.0859,-0.0907,-0.0968,-0.1025,-0.1068,-0.1067,-0.1071,-0.1037,-0.0973,-0.078,-0.0596,-0.032,-0.0028,0.022,0.048,0.0605,0.0581,0.061,0.0553,0.0545,0.0539,0.0511,0.0613,0.0613,0.0614,0.0614,0,0,-0.0884,-0.0958,-0.0995,-0.1081,-0.1117,-0.1142,-0.1142,-0.1066,-0.092,-0.0713,-0.0495,-0.0265,0.0044,0.019,0.0358,0.0519,0.0492,0.0523,0.0503,0.0411,0.0403,0.0495,0.0445,0,0,0,0,0]}],[{"header":{"parameterUnit":"m.s-1","parameterCategory":2,"la1":30.2991,"la2":30.254,"lo1":-89.0895,"lo2":-89.0444,"dy":0.0017,"dx":0.0017,"nx":28,"ny":28,"refTime":"2025-05-18T09:00:00:Z","depth":"4","parameterNumber":2,"parameterNumberName":"U-component_of_CURRENTS"},"data":[0,0,0,0,0,0,0,0,0,0,0,0,0,0,0,0,0,0,0,0,0,0,0,0,0,0,0,0,0,0,0,0,0,0,0,0,0,0,0,0,0,0,0,0,0,0,0,0,0,0,0,0,0,0,0,0,0,0,-0.1256,-0.1256,0,-0.1287,-0.1287,-0.1287,-0.1323,-0.1324,-0.1324,-0.1325,-0.1392,-0.1393,-0.1394,0,0,0,0,0,0,0,0,0,0,0,0,0,-0.1216,-0.1216,-0.1256,-0.1256,-0.1257,-0.1287,-0.1287,-0.1287,-0.1323,-0.1324,-0.1325,-0.1325,-0.1391,-0.1393,-0.1394,0,0,0,0,0,0,0,0,0,0,0,0,0,-0.1237,-0.1216,-0.1256,-0.1279,-0.1282,-0.1286,-0.1287,-0.1287,-0.1323,-0.1324,-0.1325,-0.1326,-0.1391,-0.1393,-0.1394,-0.1386,0,0,-0.14,-0.14,0,0,0,0,0,0,0,0,-0.1236,-0.1239,-0.1275,-0.1278,-0.128,-0.1303,-0.1297,-0.1322,-0.1323,-0.1306,-0.1325,-0.1326,-0.1365,-0.1369,-0.1371,-0.1389,-0.1392,-0.14,-0.1401,-0.1402,-0.1402,0,0,0,0,0,0,0,-0.1234,-0.1237,-0.1267,-0.1276,-0.1279,-0.1284,-0.1288,-0.1302,-0.133,-0.1307,-0.131,-0.1315,-0.1367,-0.1369,-0.1373,-0.1393,-0.14,-0.1401,-0.1402,-0.1403,-0.1444,-0.1444,0,0,0,0,0,0,-0.1233,-0.1236,-0.1266,-0.1268,-0.1261,-0.1284,-0.1288,-0.1294,-0.1329,-0.1335,-0.1314,-0.1317,-0.1365,-0.1371,-0.1375,-0.1436,-0.1402,-0.1403,-0.1404,-0.1444,-0.1444,-0.1444,0,0,0,0,0,0,-0.1232,-0.1235,-0.1265,-0.1254,-0.1258,-0.1284,-0.1289,-0.1294,-0.1323,-0.1334,-0.1341,-0.1342,-0.1366,-0.1373,-0.1407,-0.1437,-0.1404,-0.1406,-0.1444,-0.1444,-0.1444,-0.1514,0,0,0,0,0,0,-0.123,-0.1234,-0.1249,-0.1253,-0.1259,-0.1284,-0.1289,-0.1294,-0.1323,-0.1328,-0.1359,-0.1365,-0.1368,-0.1405,-0.1409,-0.1439,-0.1407,-0.1444,-0.1444,-0.1444,-0.1512,-0.1517,-0.1521,0,0,0,0,0,-0.1229,-0.1242,-0.1249,-0.1254,-0.1274,-0.1285,-0.1289,-0.1309,-0.1324,-0.1339,-0.136,-0.1365,-0.1407,-0.1406,-0.1411,-0.1442,-0.1444,-0.1444,-0.1444,-0.151,-0.1516,-0.1521,0,0,0,0,0,0,-0.1237,-0.1247,-0.1255,-0.1274,-0.1287,-0.1292,-0.1312,-0.1323,-0.135,-0.1363,-0.1374,-0.1381,-0.1418,-0.1413,-0.1411,-0.1448,-0.1423,-0.1424,-0.1471,-0.1477,-0.1481,-0.1486,-0.1408,0,0,0,0,0,-0.1243,-0.1258,-0.1265,-0.1284,-0.1293,-0.1307,-0.132,-0.1331,-0.1349,-0.1363,-0.1387,-0.1403,-0.1415,-0.1435,-0.1441,-0.1471,-0.1451,-0.1487,-0.1492,-0.1496,-0.15,-0.1491,-0.1495,-0.1444,-0.1444,-0.1444,0,0,-0.1252,-0.1261,-0.1271,-0.1288,-0.1302,-0.1327,-0.1318,-0.1343,-0.1373,-0.1366,-0.1424,-0.1424,-0.1424,-0.1454,-0.147,-0.1462,-0.1498,-0.1496,-0.15,-0.1502,-0.1491,-0.1496,-0.1501,-0.1444,-0.1444,-0.1444,0,0,-0.128,-0.1287,-0.1312,-0.1325,-0.1349,-0.1354,-0.1367,-0.1388,-0.1408,-0.1449,-0.1447,-0.1465,-0.1497,-0.1499,-0.1504,-0.1534,-0.1518,-0.1535,-0.1575,-0.1567,-0.1572,-0.1575,-0.1553,-0.1554,-0.1543,-0.1543,-0.1544,0,-0.1301,-0.1321,-0.1322,-0.1353,-0.1368,-0.1373,-0.1403,-0.1424,-0.1456,-0.147,-0.1479,-0.1511,-0.1518,-0.1542,-0.1554,-0.1549,-0.1533,-0.1563,-0.1575,-0.1578,-0.1581,-0.1557,-0.1557,-0.1547,-0.1546,-0.1546,-0.1546,0,-0.1336,-0.1366,-0.1382,-0.1421,-0.1439,-0.1459,-0.1481,-0.1509,-0.1532,-0.1546,-0.158,-0.1582,-0.1595,-0.1602,-0.1596,-0.1616,-0.1594,-0.1581,-0.1568,-0.1591,-0.1563,-0.1563,-0.1552,-0.155,-0.1549,-0.1549,0,0,-0.1337,-0.1398,-0.1404,-0.143,-0.147,-0.1481,-0.1535,-0.1563,-0.1591,-0.1626,-0.1655,-0.1679,-0.1669,-0.167,-0.1659,-0.1662,-0.1671,-0.1639,-0.1636,-0.1628,-0.1644,-0.1519,-0.1505,-0.1664,-0.1665,-0.1665,-0.1616,0,-0.1364,-0.1425,-0.1449,-0.1505,-0.1528,-0.1552,-0.1595,-0.1626,-0.1649,-0.168,-0.1684,-0.1704,-0.1698,-0.1701,-0.1706,-0.1675,-0.1672,-0.1684,-0.1612,-0.161,-0.1506,-0.1502,-0.1666,-0.1615,-0.1615,-0.1615,-0.1615,0,-0.1372,-0.141,-0.1471,-0.153,-0.1544,-0.1584,-0.1625,-0.1665,-0.1704,-0.1723,-0.1744,-0.1741,-0.1752,-0.1738,-0.1715,-0.1724,-0.1692,-0.1669,-0.1666,-0.1524,-0.1483,-0.1585,-0.1613,-0.1613,-0.1613,-0.1613,-0.1613,0,-0.133,-0.1414,-0.1458,-0.148,-0.1556,-0.1589,-0.1627,-0.1675,-0.17,-0.1741,-0.1756,-0.1769,-0.1766,-0.1746,-0.17,-0.1711,-0.1658,-0.1661,-0.1518,-0.1509,-0.1609,-0.1606,-0.1641,-0.1641,-0.1641,-0.1641,-0.1641,0,-0.1312,-0.135,-0.1447,-0.1466,-0.1513,-0.1574,-0.1617,-0.1659,-0.1709,-0.1722,-0.1767,-0.1765,-0.1769,-0.1738,-0.1703,-0.1593,-0.1655,-0.1516,-0.1485,-0.1637,-0.1638,-0.1608,-0.1605,-0.1639,-0.1639,-0.164,-0.164,0,-0.125,-0.1319,-0.1371,-0.1464,-0.1493,-0.1522,-0.1604,-0.1622,-0.1691,-0.1708,-0.172,-0.1758,-0.1701,-0.1678,-0.1625,-0.1571,-0.1495,-0.1441,-0.1592,-0.1572,-0.1356,-0.1357,-0.1282,-0.1277,-0.1273,-0.1269,-0.1266,0,-0.1221,-0.1246,-0.1349,-0.137,-0.1415,-0.1473,-0.1499,-0.1591,-0.1605,-0.1681,-0.167,-0.1658,-0.1653,-0.1481,-0.1477,-0.1377,-0.1358,-0.133,-0.1359,-0.134,-0.1318,-0.1326,-0.1333,-0.126,-0.1259,-0.1258,-0.1256,0,-0.1158,-0.1208,-0.1245,-0.1286,-0.1326,-0.1364,-0.1415,-0.1418,-0.1504,-0.1595,-0.1564,-0.1525,-0.1451,-0.1388,-0.1303,-0.1246,-0.1359,-0.1287,-0.1296,-0.1323,-0.1313,-0.1297,-0.1308,-0.1242,-0.1244,-0.1245,-0.1246,0,-0.1103,-0.1109,-0.1157,-0.1176,-0.1223,-0.122,-0.1271,-0.1285,-0.1319,-0.1421,-0.1405,-0.1397,-0.1437,-0.1318,-0.125,-0.1164,-0.115,-0.1137,-0.1154,-0.117,-0.115,-0.1122,-0.0957,0,0,0,0,0,-0.1038,-0.1023,-0.1036,-0.1043,-0.1084,-0.1105,-0.119,-0.1244,-0.1343,-0.1282,-0.1341,-0.1269,-0.1179,-0.1186,-0.1062,-0.1163,-0.1133,-0.1017,-0.1124,-0.1162,-0.1179,-0.1163,0,0,0,0,0,0,-0.0989,-0.1001,-0.0993,-0.0922,-0.0898,-0.0924,-0.0971,-0.1045,-0.1027,-0.114,-0.1088,-0.1188,-0.1098,-0.1198,-0.1028,-0.1023,-0.1066,-0.1027,-0.1023,-0.1153,-0.1168,-0.1181,-0.1171,0,0,0,0,0]},{"header":{"parameterUnit":"m.s-1","parameterCategory":2,"la1":30.2991,"la2":30.254,"lo1":-89.0895,"lo2":-89.0444,"dy":0.0017,"dx":0.0017,"nx":28,"ny":28,"refTime":"2025-05-18T09:00:00:Z","depth":"4","parameterNumber":3,"parameterNumberName":"V-component_of_CURRENTS"},"data":[0,0,0,0,0,0,0,0,0,0,0,0,0,0,0,0,0,0,0,0,0,0,0,0,0,0,0,0,0,0,0,0,0,0,0,0,0,0,0,0,0,0,0,0,0,0,0,0,0,0,0,0,0,0,0,0,0,0,-0.0435,-0.0435,0,-0.0409,-0.0408,-0.0408,-0.0381,-0.0381,-0.0381,-0.038,-0.0327,-0.0326,-0.0324,0,0,0,0,0,0,0,0,0,0,0,0,0,-0.0408,-0.0409,-0.0435,-0.0435,-0.0435,-0.0409,-0.0408,-0.0407,-0.0381,-0.0381,-0.038,-0.038,-0.0327,-0.0326,-0.0324,0,0,0,0,0,0,0,0,0,0,0,0,0,-0.0402,-0.0409,-0.0435,-0.0421,-0.0419,-0.0409,-0.0408,-0.0407,-0.0381,-0.0381,-0.038,-0.038,-0.0328,-0.0326,-0.0324,-0.0314,0,0,-0.0318,-0.0317,0,0,0,0,0,0,0,0,-0.0402,-0.0403,-0.0423,-0.0422,-0.042,-0.04,-0.0379,-0.0376,-0.0381,-0.0392,-0.038,-0.038,-0.0351,-0.0347,-0.0339,-0.0312,-0.031,-0.0318,-0.0316,-0.0316,-0.0315,0,0,0,0,0,0,0,-0.0403,-0.0403,-0.0422,-0.0423,-0.0421,-0.0397,-0.0396,-0.0378,-0.037,-0.0391,-0.039,-0.0392,-0.035,-0.0341,-0.0337,-0.0309,-0.0318,-0.0316,-0.0315,-0.0314,-0.0268,-0.0268,0,0,0,0,0,0,-0.0415,-0.0404,-0.0423,-0.0421,-0.0414,-0.0398,-0.0397,-0.0405,-0.0371,-0.0367,-0.0392,-0.0391,-0.0344,-0.034,-0.0335,-0.0292,-0.0316,-0.0314,-0.0313,-0.0268,-0.0268,-0.0268,0,0,0,0,0,0,-0.0415,-0.0417,-0.0424,-0.0414,-0.0413,-0.0399,-0.0408,-0.0404,-0.0398,-0.0372,-0.0367,-0.039,-0.0344,-0.0338,-0.032,-0.0291,-0.0313,-0.0311,-0.0268,-0.0268,-0.0268,-0.0226,0,0,0,0,0,0,-0.0414,-0.0417,-0.0424,-0.0415,-0.0414,-0.0418,-0.0408,-0.0404,-0.0401,-0.0399,-0.0369,-0.0364,-0.0343,-0.0323,-0.0318,-0.0289,-0.0309,-0.0268,-0.0268,-0.0268,-0.0227,-0.0224,-0.0222,0,0,0,0,0,-0.0413,-0.0417,-0.0425,-0.0427,-0.0426,-0.0418,-0.0415,-0.0402,-0.0401,-0.0396,-0.0378,-0.0365,-0.0319,-0.0321,-0.0315,-0.0285,-0.0268,-0.0268,-0.0268,-0.0228,-0.0225,-0.0222,0,0,0,0,0,0,-0.0407,-0.0415,-0.0423,-0.043,-0.0429,-0.0415,-0.041,-0.0407,-0.0389,-0.0388,-0.0364,-0.0357,-0.033,-0.0324,-0.0327,-0.0276,-0.0292,-0.029,-0.0264,-0.026,-0.0258,-0.0248,-0.0308,0,0,0,0,0,-0.0413,-0.042,-0.0424,-0.0431,-0.0431,-0.0424,-0.042,-0.0415,-0.0401,-0.0393,-0.0373,-0.0352,-0.0325,-0.0308,-0.0291,-0.0262,-0.0247,-0.0242,-0.0239,-0.0237,-0.0228,-0.0176,-0.0166,-0.0268,-0.0268,-0.0268,0,0,-0.0415,-0.0419,-0.0425,-0.043,-0.0428,-0.0419,-0.042,-0.0417,-0.0398,-0.039,-0.0359,-0.0346,-0.032,-0.0284,-0.0271,-0.0272,-0.0205,-0.0237,-0.0234,-0.0227,-0.0174,-0.0164,-0.0155,-0.0268,-0.0268,-0.0268,0,0,-0.0413,-0.0426,-0.0429,-0.0426,-0.0427,-0.042,-0.0422,-0.0413,-0.0396,-0.0376,-0.0358,-0.0325,-0.0301,-0.0257,-0.0236,-0.0212,-0.0198,-0.0219,-0.0183,-0.0132,-0.0122,-0.0113,-0.0096,-0.0086,-0.0209,-0.0209,-0.0209,0,-0.0413,-0.0422,-0.0427,-0.0422,-0.0417,-0.0421,-0.0414,-0.0394,-0.0377,-0.0353,-0.0365,-0.0298,-0.0277,-0.0205,-0.0197,-0.0199,-0.0189,-0.0191,-0.0125,-0.0116,-0.0107,-0.0092,-0.0081,-0.0207,-0.0207,-0.0207,-0.0207,0,-0.0409,-0.0416,-0.0415,-0.0412,-0.0403,-0.0402,-0.0382,-0.0365,-0.0355,-0.033,-0.0276,-0.0245,-0.0201,-0.0187,-0.0182,-0.011,-0.013,-0.013,-0.0126,-0.0094,-0.0081,-0.007,-0.0204,-0.0204,-0.0205,-0.0205,0,0,-0.0418,-0.0414,-0.0416,-0.0415,-0.0401,-0.0395,-0.0357,-0.0322,-0.0289,-0.0261,-0.021,-0.0152,-0.014,-0.0117,-0.0097,-0.0049,0.0014,-0.0068,-0.0066,-0.0039,0.01,0.0076,0.0085,0.0024,0.0027,0.0029,0.0081,0,-0.0418,-0.0418,-0.0405,-0.0396,-0.0397,-0.0372,-0.0334,-0.0295,-0.0261,-0.0212,-0.0157,-0.0114,-0.011,-0.0093,-0.0037,-0.0011,0.0044,-0.0002,0.0054,0.0056,0.0043,0.0098,0.0036,0.0089,0.0091,0.0093,0.0094,0,-0.0424,-0.0424,-0.0424,-0.0395,-0.039,-0.0377,-0.0323,-0.0287,-0.0208,-0.0177,-0.0112,-0.0082,-0.0009,-0.0017,0.008,0.0044,0.008,0.0106,0.0109,0.0083,0.0053,0.0053,0.0113,0.0111,0.011,0.0109,0.0108,0,-0.0449,-0.0434,-0.0439,-0.0434,-0.04,-0.0383,-0.0358,-0.0284,-0.0256,-0.0162,-0.0146,-0.0039,-0.0021,0.0061,0.0105,0.0094,0.0199,0.0193,0.0217,0.0213,0.0199,0.019,0.029,0.029,0.0289,0.0289,0.0289,0,-0.0461,-0.0464,-0.0459,-0.0465,-0.0459,-0.0413,-0.0388,-0.0335,-0.027,-0.0246,-0.0145,-0.0111,-0.0004,0.0059,0.0121,0.019,0.0217,0.0238,0.0241,0.021,0.0201,0.0206,0.0195,0.0291,0.0291,0.029,0.029,0,-0.0493,-0.049,-0.0503,-0.0485,-0.0482,-0.0482,-0.0452,-0.0429,-0.0354,-0.0326,-0.0307,-0.018,-0.0083,0.0022,0.0146,0.0185,0.0273,0.0297,0.0241,0.0236,0.0248,0.0239,0.0336,0.0336,0.0336,0.0336,0.0336,0,-0.0506,-0.0522,-0.0544,-0.0569,-0.0572,-0.0568,-0.0569,-0.0493,-0.0476,-0.0376,-0.0373,-0.0254,-0.017,-0.0008,0.0119,0.0265,0.0282,0.0314,0.0311,0.0268,0.0261,0.0251,0.0243,0.0336,0.0336,0.0336,0.0336,0,-0.0536,-0.0559,-0.0578,-0.0639,-0.0665,-0.0676,-0.0672,-0.0665,-0.0582,-0.0529,-0.0428,-0.0303,-0.0185,-0.0021,0.0095,0.0199,0.0288,0.0314,0.0315,0.0312,0.0269,0.0259,0.0251,0.0336,0.0336,0.0336,0.0336,0,-0.0568,-0.0603,-0.065,-0.0694,-0.0741,-0.0768,-0.0752,-0.0719,-0.0679,-0.0563,-0.0534,-0.0357,-0.0244,-0.0055,0.0052,0.0157,0.0184,0.0195,0.0202,0.0204,0.0154,0.0079,0.0107,0,0,0,0,0,-0.0591,-0.0638,-0.0695,-0.0745,-0.0796,-0.0813,-0.0812,-0.0783,-0.0717,-0.0667,-0.0593,-0.0469,-0.0255,-0.0132,-0.0032,0.0042,0.0189,0.0159,0.0201,0.0335,0.0335,0.0298,0,0,0,0,0,0,-0.061,-0.0674,-0.0704,-0.0781,-0.0821,-0.0863,-0.0864,-0.082,-0.0768,-0.0686,-0.0561,-0.0471,-0.0251,-0.0321,-0.0038,0.0002,0.0034,0.0277,0.0278,0.0335,0.0335,0.0335,0.0297,0,0,0,0,0]}]]